timestamp,surface_pressure_avg,surface_temp_avg,battery_voltage,lat,long
2020-12-16 00:09:01+00:00,360.353,5.8,12.41,47.84626,-54.09684
2020-12-16 00:19:01+00:00,353.5829,5.8,12.41,47.84626,-54.09684
2020-12-16 00:29:01+00:00,359.6763,5.87,12.41,47.84626,-54.09684
2020-12-16 00:39:01+00:00,366.0196,5.89,12.41,47.84626,-54.09684
2020-12-16 00:49:01+00:00,360.6963,5.87,12.41,47.84626,-54.09684
2020-12-16 00:59:01+00:00,356.89300000000014,5.89,12.41,47.84626,-54.09684
2020-12-16 01:09:01+00:00,364.1996,5.9,12.41,47.84626,-54.09684
2020-12-16 01:19:01+00:00,358.4312,5.85,12.41,47.84626,-54.09684
2020-12-16 01:29:01+00:00,352.4596,5.8,12.41,47.84626,-54.09684
2020-12-16 01:39:01+00:00,355.6329,5.77,12.41,47.84626,-54.09684
2020-12-16 01:49:01+00:00,347.0963,5.6,12.41,47.84626,-54.09684
2020-12-16 01:59:01+00:00,330.6763,5.6,12.41,47.84626,-54.09684
2020-12-16 02:09:01+00:00,335.7663,5.6,12.41,47.84626,-54.09684
2020-12-16 02:19:01+00:00,338.9346,5.6,12.41,47.84626,-54.09684
2020-12-16 02:29:01+00:00,321.953,5.5,12.41,47.84626,-54.09684
2020-12-16 02:39:01+00:00,311.743,5.53,12.41,47.84626,-54.09684
2020-12-16 02:49:01+00:00,316.2646,5.55,12.41,47.84626,-54.09684
2020-12-16 02:59:01+00:00,299.693,5.5,12.41,47.84626,-54.09684
2020-12-16 03:09:01+00:00,267.7481,5.5,12.41,47.84626,-54.09684
2020-12-16 03:19:01+00:00,265.5464,5.5,12.41,47.84626,-54.09684
2020-12-16 03:29:01+00:00,266.4831,5.5,12.41,47.84626,-54.09684
2020-12-16 03:39:01+00:00,247.7864,5.5,12.41,47.84626,-54.09684
2020-12-16 03:49:01+00:00,230.7848,5.47,12.41,47.84626,-54.09684
2020-12-16 03:59:01+00:00,228.4848,5.47,12.41,47.84626,-54.09684
2020-12-16 04:09:01+00:00,218.6198,5.4,12.41,47.84626,-54.09684
2020-12-16 04:19:01+00:00,201.7048,5.4,12.41,47.84626,-54.09684
2020-12-16 04:29:01+00:00,196.6181,5.4,12.41,47.84626,-54.09684
2020-12-16 04:39:01+00:00,193.3248,5.4,12.41,47.84626,-54.09684
2020-12-16 04:49:01+00:00,180.3798,5.4,12.41,47.84626,-54.09684
2020-12-16 04:59:01+00:00,180.0565,5.4,12.41,47.84626,-54.09684
2020-12-16 05:09:01+00:00,185.3014,5.4,12.41,47.84626,-54.09684
2020-12-16 05:19:01+00:00,180.0781,5.4,12.41,47.84626,-54.09684
2020-12-16 05:29:01+00:00,181.4148,5.4,12.41,47.84626,-54.09684
2020-12-16 05:39:01+00:00,192.5048,5.4,12.41,47.84626,-54.09684
2020-12-16 05:49:01+00:00,193.3681,5.4,12.41,47.84626,-54.09684
2020-12-16 05:59:01+00:00,192.1498,5.35,12.41,47.84626,-54.09684
2020-12-16 06:09:01+00:00,200.1515,5.39,12.41,47.84626,-54.09684
2020-12-16 06:19:01+00:00,202.5414,5.4,12.41,47.84626,-54.09684
2020-12-16 06:29:01+00:00,200.1714,5.32,12.41,47.84626,-54.09684
2020-12-16 06:39:01+00:00,207.5548,5.4,12.41,47.84626,-54.09684
2020-12-16 06:49:01+00:00,214.8431,5.4,12.41,47.84626,-54.09684
2020-12-16 06:59:01+00:00,210.5698,5.33,12.41,47.84626,-54.09684
2020-12-16 07:09:01+00:00,207.9315,5.37,12.41,47.84626,-54.09684
2020-12-16 07:19:01+00:00,211.5181,5.36,12.41,47.84626,-54.09684
2020-12-16 07:29:01+00:00,214.5631,5.34,12.41,47.84626,-54.09684
2020-12-16 07:39:01+00:00,214.7531,5.33,12.41,47.84626,-54.09684
2020-12-16 07:49:01+00:00,214.3264,5.37,12.41,47.84626,-54.09684
2020-12-16 07:59:01+00:00,219.2248,5.35,12.41,47.84626,-54.09684
2020-12-16 08:09:01+00:00,220.8464,5.3,12.41,47.84626,-54.09684
2020-12-16 08:19:01+00:00,217.2481,5.3,12.41,47.84626,-54.09684
2020-12-16 08:29:01+00:00,221.5998,5.3,12.41,47.84626,-54.09684
2020-12-16 08:39:01+00:00,231.7481,5.3,12.41,47.84626,-54.09684
2020-12-16 08:49:01+00:00,235.3064,5.3,12.41,47.84626,-54.09684
2020-12-16 08:59:01+00:00,234.6348,5.3,12.41,47.84626,-54.09684
2020-12-16 09:09:01+00:00,239.8531,5.3,12.41,47.84626,-54.09684
2020-12-16 09:19:01+00:00,250.4265,5.3,12.41,47.84626,-54.09684
2020-12-16 09:29:01+00:00,258.1847,5.3,12.41,47.84626,-54.09684
2020-12-16 09:39:01+00:00,264.2664,5.3,12.41,47.84626,-54.09684
2020-12-16 09:49:01+00:00,272.778,5.3,12.41,47.84626,-54.09684
2020-12-16 09:59:01+00:00,285.923,5.2,12.41,47.84626,-54.09684
2020-12-16 10:09:01+00:00,299.5514,5.15,12.41,47.84626,-54.09684
2020-12-16 10:19:01+00:00,307.6398,5.1,12.33,47.84626,-54.09684
2020-12-16 10:29:01+00:00,314.968,5.02,12.33,47.84626,-54.09684
2020-12-16 10:39:01+00:00,328.7996,5.05,12.33,47.84626,-54.09684
2020-12-16 10:49:01+00:00,340.3629,5.07,12.33,47.84626,-54.09684
2020-12-16 10:59:01+00:00,345.0696,5.02,12.33,47.84626,-54.09684
2020-12-16 11:09:01+00:00,356.4012,5.04,12.33,47.84626,-54.09684
2020-12-16 11:19:01+00:00,372.4946,5.07,12.33,47.84626,-54.09684
2020-12-16 11:29:01+00:00,377.6413,5.0,12.33,47.84626,-54.09684
2020-12-16 11:39:01+00:00,388.9395,5.0,12.33,47.84626,-54.09684
2020-12-16 11:49:01+00:00,405.0462,5.0,12.33,47.84626,-54.09684
2020-12-16 11:59:01+00:00,409.3763,5.01,12.33,47.84626,-54.09684
2020-12-16 12:09:01+00:00,410.6528,5.07,12.33,47.84626,-54.09684
2020-12-16 12:19:01+00:00,417.5812,5.08,13.37,47.84626,-54.09684
2020-12-16 12:29:01+00:00,420.7429,5.1,13.37,47.84626,-54.09684
2020-12-16 12:39:01+00:00,422.4312,5.16,13.37,47.84626,-54.09684
2020-12-16 12:49:01+00:00,421.2211,5.19,13.37,47.84626,-54.09684
2020-12-16 12:59:01+00:00,423.4279,5.2,13.37,47.84626,-54.09684
2020-12-16 13:09:01+00:00,419.8295,5.23,13.37,47.84626,-54.09684
2020-12-16 13:19:01+00:00,414.6378,5.3,13.92,47.84626,-54.09684
2020-12-16 13:29:01+00:00,417.8112,5.3,13.92,47.84626,-54.09684
2020-12-16 13:39:01+00:00,416.1179,5.3,13.92,47.84626,-54.09684
2020-12-16 13:49:01+00:00,408.7529,5.3,13.92,47.84626,-54.09684
2020-12-16 13:59:01+00:00,404.5412,5.25,13.92,47.84626,-54.09684
2020-12-16 14:09:01+00:00,403.1213,5.2,13.92,47.84626,-54.09684
2020-12-16 14:19:01+00:00,402.3062,5.2,14.32,47.84626,-54.09684
2020-12-16 14:29:01+00:00,393.4795,5.16,14.32,47.84626,-54.09684
2020-12-16 14:39:01+00:00,389.4146,5.1,14.32,47.84626,-54.09684
2020-12-16 14:49:01+00:00,386.3663,5.1,14.32,47.84626,-54.09684
2020-12-16 14:59:01+00:00,378.3762,5.1,14.32,47.84626,-54.09684
2020-12-16 15:09:01+00:00,366.8713,5.1,14.32,47.84626,-54.09684
2020-12-16 15:19:01+00:00,351.2114,5.1,14.64,47.84626,-54.09684
2020-12-16 15:29:01+00:00,345.1829,5.1,14.64,47.84626,-54.09684
2020-12-16 15:39:01+00:00,334.6964,5.1,14.64,47.84626,-54.09684
2020-12-16 15:49:01+00:00,320.503,5.14,14.64,47.84626,-54.09684
2020-12-16 15:59:01+00:00,310.8763,5.19,14.64,47.84626,-54.09684
2020-12-16 16:09:01+00:00,304.398,5.2,14.64,47.84626,-54.09684
2020-12-16 16:19:01+00:00,293.3146,5.2,14.56,47.84626,-54.09684
2020-12-16 16:29:01+00:00,280.2264,5.23,14.56,47.84626,-54.09684
2020-12-16 16:39:01+00:00,276.6481,5.3,14.56,47.84626,-54.09684
2020-12-16 16:49:01+00:00,266.5331,5.2,14.56,47.84626,-54.09684
2020-12-16 16:59:01+00:00,250.4197,5.22,14.56,47.84626,-54.09684
2020-12-16 17:09:01+00:00,242.7414,5.28,14.56,47.84626,-54.09684
2020-12-16 17:19:01+00:00,241.0797,5.3,14.64,47.84626,-54.09684
2020-12-16 17:29:01+00:00,231.4098,5.3,14.64,47.84626,-54.09684
2020-12-16 17:39:01+00:00,225.8114,5.34,14.64,47.84626,-54.09684
2020-12-16 17:49:01+00:00,229.9531,5.4,14.64,47.84626,-54.09684
2020-12-16 17:59:01+00:00,229.6348,5.4,14.64,47.84626,-54.09684
2020-12-16 18:09:01+00:00,222.7448,5.4,14.64,47.84626,-54.09684
2020-12-16 18:19:01+00:00,218.8914,5.4,14.32,47.84626,-54.09684
2020-12-16 18:29:01+00:00,221.6664,5.42,14.32,47.84626,-54.09684
2020-12-16 18:39:01+00:00,220.4548,5.4,14.32,47.84626,-54.09684
2020-12-16 18:49:01+00:00,215.3781,5.4,14.32,47.84626,-54.09684
2020-12-16 18:59:01+00:00,217.7831,5.4,14.32,47.84626,-54.09684
2020-12-16 19:09:01+00:00,218.7798,5.4,14.32,47.84626,-54.09684
2020-12-16 19:19:01+00:00,216.7764,5.4,13.92,47.84626,-54.09684
2020-12-16 19:29:01+00:00,219.2681,5.4,13.92,47.84626,-54.09684
2020-12-16 19:39:01+00:00,222.4781,5.44,13.92,47.84626,-54.09684
2020-12-16 19:49:01+00:00,225.3964,5.4,13.92,47.84626,-54.09684
2020-12-16 19:59:01+00:00,226.4648,5.4,13.92,47.84626,-54.09684
2020-12-16 20:09:01+00:00,223.8615,5.4,13.92,47.84626,-54.09684
2020-12-16 20:19:01+00:00,226.0147,5.39,13.37,47.84626,-54.09684
2020-12-16 20:29:01+00:00,230.0614,5.32,13.37,47.84626,-54.09684
2020-12-16 20:39:01+00:00,230.4214,5.3,13.37,47.84626,-54.09684
2020-12-16 20:49:01+00:00,227.6081,5.3,13.37,47.84626,-54.09684
2020-12-16 20:59:01+00:00,232.6448,5.3,13.37,47.84626,-54.09684
2020-12-16 21:09:01+00:00,243.2264,5.3,13.37,47.84626,-54.09684
2020-12-16 21:19:01+00:00,245.8164,5.3,13.05,47.84626,-54.09684
2020-12-16 21:29:01+00:00,248.8331,5.28,13.05,47.84626,-54.09684
2020-12-16 21:39:01+00:00,260.2948,5.2,13.05,47.84626,-54.09684
2020-12-16 21:49:01+00:00,265.9764,5.2,13.05,47.84626,-54.09684
2020-12-16 21:59:01+00:00,266.4764,5.2,13.05,47.84626,-54.09684
2020-12-16 22:09:01+00:00,268.2331,5.2,13.05,47.84626,-54.09684
2020-12-16 22:19:01+00:00,280.9864,5.2,12.81,47.84626,-54.09684
2020-12-16 22:29:01+00:00,290.2914,5.2,12.81,47.84626,-54.09684
2020-12-16 22:39:01+00:00,291.9547,5.2,12.81,47.84626,-54.09684
2020-12-16 22:49:01+00:00,300.3713,5.2,12.81,47.84626,-54.09684
2020-12-16 22:59:01+00:00,317.1763,5.19,12.81,47.84626,-54.09684
2020-12-16 23:09:01+00:00,327.5213,5.1,12.81,47.84626,-54.09684
2020-12-16 23:19:01+00:00,327.568,5.1,12.65,47.84626,-54.09684
2020-12-16 23:29:01+00:00,330.8097,5.1,12.65,47.84626,-54.09684
2020-12-16 23:39:01+00:00,343.0829,5.1,12.65,47.84626,-54.09684
2020-12-16 23:49:01+00:00,347.1346,5.09,12.65,47.84626,-54.09684
2020-12-16 23:59:01+00:00,346.733,5.0,12.65,47.84626,-54.09684
